| time (UTC) | temp F | wind direction | speed MPH | gust MPH | rain 1hr in | rain 24hr in | rain mn in | humidity % | barometer mb |
| 20260905204958 | 97 | 98 | 4.0 | 12.0 | 0.00 | 0.00 | 0.00 | 52 | 1008.3 |
| 20260905204456 | 97 | 28 | 4.0 | 11.0 | 0.00 | 0.00 | 0.00 | 54 | 1008.4 |
| 20260905203957 | 98 | 110 | 5.0 | 11.0 | 0.00 | 0.00 | 0.00 | 52 | 1008.5 |
| 20260905203456 | 97 | 142 | 4.0 | 10.0 | 0.00 | 0.00 | 0.00 | 52 | 1008.6 |
| 20260905202957 | 97 | 190 | 4.0 | 9.0 | 0.00 | 0.00 | 0.00 | 54 | 1008.7 |
| 20260905202455 | 97 | 128 | 5.0 | 10.0 | 0.00 | 0.00 | 0.00 | 53 | 1008.9 |
| 20260905201957 | 97 | 133 | 5.0 | 11.0 | 0.00 | 0.00 | 0.00 | 54 | 1008.9 |
| 20260905201455 | 97 | 106 | 5.0 | 11.0 | 0.00 | 0.00 | 0.00 | 54 | 1008.9 |
| 20260905200956 | 97 | 101 | 5.0 | 9.0 | 0.00 | 0.00 | 0.00 | 54 | 1009.0 |
| 20260905200455 | 97 | 145 | 5.0 | 9.0 | 0.00 | 0.00 | 0.00 | 54 | 1009.1 |
| 20260905195957 | 98 | 126 | 4.0 | 9.0 | 0.00 | 0.00 | 0.00 | 54 | 1009.2 |
| 20260905195456 | 99 | 182 | 4.0 | 9.0 | 0.00 | 0.00 | 0.00 | 49 | 1009.2 |
| 20260905194957 | 98 | 118 | 4.0 | 9.0 | 0.00 | 0.00 | 0.00 | 51 | 1009.2 |
| 20260905194455 | 98 | 145 | 3.0 | 8.0 | 0.00 | 0.00 | 0.00 | 51 | 1009.3 |
| 20260905193957 | 98 | 128 | 4.0 | 12.0 | 0.00 | 0.00 | 0.00 | 51 | 1009.3 |
| 20260905193456 | 99 | 115 | 4.0 | 12.0 | 0.00 | 0.00 | 0.00 | 51 | 1009.4 |
| 20260905192957 | 100 | 104 | 3.0 | 9.0 | 0.00 | 0.00 | 0.00 | 48 | 1009.4 |
| 20260905192456 | 100 | 131 | 4.0 | 10.0 | 0.00 | 0.00 | 0.00 | 47 | 1009.6 |
| 20260905191957 | 99 | 186 | 4.0 | 10.0 | 0.00 | 0.00 | 0.00 | 48 | 1009.6 |
| 20260905191455 | 100 | 131 | 4.0 | 11.0 | 0.00 | 0.00 | 0.00 | 50 | 1009.6 |
| 20260905190957 | 99 | 163 | 4.0 | 11.0 | 0.00 | 0.00 | 0.00 | 47 | 1009.7 |
| 20260905190456 | 98 | 116 | 5.0 | 10.0 | 0.00 | 0.00 | 0.00 | 47 | 1009.7 |
| 20260905185955 | 98 | 147 | 4.0 | 8.0 | 0.00 | 0.00 | 0.00 | 47 | 1009.6 |
| 20260905184956 | 97 | 102 | 3.0 | 7.0 | 0.00 | 0.00 | 0.00 | 49 | 1009.8 |
| 20260905184455 | 97 | 166 | 3.0 | 7.0 | 0.00 | 0.00 | 0.00 | 50 | 1009.9 |
| 20260905183957 | 98 | 47 | 3.0 | 9.0 | 0.00 | 0.00 | 0.00 | 50 | 1010.0 |
| 20260905183457 | 97 | 102 | 3.0 | 9.0 | 0.00 | 0.00 | 0.00 | 50 | 1010.1 |
| 20260905182957 | 98 | 126 | 2.0 | 8.0 | 0.00 | 0.00 | 0.00 | 50 | 1010.1 |
| 20260905182458 | 97 | 179 | 4.0 | 9.0 | 0.00 | 0.00 | 0.00 | 51 | 1010.2 |
| 20260905181957 | 97 | 132 | 3.0 | 9.0 | 0.00 | 0.00 | 0.00 | 52 | 1010.4 |
| 20260905181457 | 97 | 87 | 3.0 | 7.0 | 0.00 | 0.00 | 0.00 | 51 | 1010.5 |
| 20260905180457 | 96 | 95 | 3.0 | 8.0 | 0.00 | 0.00 | 0.00 | 51 | 1010.6 |
| 20260905175958 | 96 | 69 | 4.0 | 9.0 | 0.00 | 0.00 | 0.00 | 52 | 1010.6 |
| 20260905175458 | 95 | 150 | 3.0 | 9.0 | 0.00 | 0.00 | 0.00 | 53 | 1010.8 |
| 20260905174957 | 95 | 175 | 3.0 | 7.0 | 0.00 | 0.00 | 0.00 | 54 | 1010.8 |
| 20260905174455 | 95 | 123 | 4.0 | 7.0 | 0.00 | 0.00 | 0.00 | 55 | 1011.0 |
| 20260905173955 | 96 | 97 | 4.0 | 11.0 | 0.00 | 0.00 | 0.00 | 54 | 1011.1 |
| 20260905173455 | 96 | 90 | 4.0 | 11.0 | 0.00 | 0.00 | 0.00 | 53 | 1011.1 |
| 20260905172955 | 96 | 119 | 3.0 | 11.0 | 0.00 | 0.00 | 0.00 | 51 | 1011.1 |
| 20260905172455 | 96 | 234 | 3.0 | 10.0 | 0.00 | 0.00 | 0.00 | 50 | 1011.1 |
| 20260905171954 | 96 | 171 | 3.0 | 8.0 | 0.00 | 0.00 | 0.00 | 51 | 1011.2 |
| 20260905171455 | 96 | 154 | 3.0 | 8.0 | 0.00 | 0.00 | 0.00 | 53 | 1011.2 |
| 20260905170955 | 96 | 127 | 3.0 | 8.0 | 0.00 | 0.00 | 0.00 | 52 | 1011.3 |
| 20260905170507 | 96 | 171 | 2.0 | 7.0 | 0.00 | 0.00 | 0.00 | 51 | 1011.3 |
| 20260905165455 | 94 | 147 | 3.0 | 7.0 | 0.00 | 0.00 | 0.00 | 54 | 1011.4 |
| 20260905164955 | 94 | 183 | 3.0 | 11.0 | 0.00 | 0.00 | 0.00 | 56 | 1011.5 |
| 20260905164455 | 94 | 164 | 4.0 | 11.0 | 0.00 | 0.00 | 0.00 | 54 | 1011.6 |
| 20260905163956 | 94 | 178 | 4.0 | 11.0 | 0.00 | 0.00 | 0.00 | 54 | 1011.5 |
| 20260905163455 | 94 | 169 | 3.0 | 11.0 | 0.00 | 0.00 | 0.00 | 56 | 1011.5 |
| 20260905162951 | 94 | 128 | 4.0 | 11.0 | 0.00 | 0.00 | 0.00 | 56 | 1011.5 |
| 20260905162451 | 93 | 97 | 3.0 | 8.0 | 0.00 | 0.00 | 0.00 | 55 | 1011.5 |
| 20260905161951 | 92 | 141 | 3.0 | 9.0 | 0.00 | 0.00 | 0.00 | 59 | 1011.6 |
| 20260905161452 | 92 | 130 | 3.0 | 9.0 | 0.00 | 0.00 | 0.00 | 58 | 1011.7 |
| 20260905160952 | 92 | 180 | 3.0 | 6.0 | 0.00 | 0.00 | 0.00 | 61 | 1011.8 |
| 20260905160453 | 92 | 143 | 3.0 | 8.0 | 0.00 | 0.00 | 0.00 | 61 | 1011.8 |
| 20260905155951 | 92 | 189 | 3.0 | 8.0 | 0.00 | 0.00 | 0.00 | 60 | 1011.8 |
| 20260905154952 | 92 | 169 | 4.0 | 9.0 | 0.00 | 0.00 | 0.00 | 60 | 1011.8 |
| 20260905154453 | 92 | 180 | 4.0 | 9.0 | 0.00 | 0.00 | 0.00 | 62 | 1011.9 |
| 20260905153453 | 91 | 243 | 3.0 | 8.0 | 0.00 | 0.00 | 0.00 | 64 | 1011.9 |
| 20260905152951 | 91 | 149 | 3.0 | 8.0 | 0.00 | 0.00 | 0.00 | 66 | 1012.0 |
| 20260905152448 | 91 | 137 | 3.0 | 10.0 | 0.00 | 0.00 | 0.00 | 67 | 1012.0 |
| 20260905151948 | 90 | 169 | 4.0 | 10.0 | 0.00 | 0.00 | 0.00 | 67 | 1012.0 |
| 20260905151445 | 89 | 186 | 3.0 | 10.0 | 0.00 | 0.00 | 0.00 | 70 | 1011.9 |
| 20260905150948 | 89 | 92 | 4.0 | 11.0 | 0.00 | 0.00 | 0.00 | 70 | 1011.9 |
| 20260905150443 | 89 | 175 | 5.0 | 11.0 | 0.00 | 0.00 | 0.00 | 72 | 1012.0 |
| 20260905145943 | 89 | 191 | 4.0 | 9.0 | 0.00 | 0.00 | 0.00 | 73 | 1012.0 |
| 20260905145445 | 89 | 211 | 3.0 | 7.0 | 0.00 | 0.00 | 0.00 | 71 | 1012.0 |
| 20260905144943 | 89 | 136 | 4.0 | 10.0 | 0.00 | 0.00 | 0.00 | 74 | 1012.0 |
| 20260905144444 | 88 | 85 | 4.0 | 11.0 | 0.00 | 0.00 | 0.00 | 75 | 1012.0 |
| 20260905143943 | 87 | 181 | 5.0 | 11.0 | 0.00 | 0.00 | 0.00 | 77 | 1012.0 |
| 20260905143445 | 87 | 187 | 5.0 | 12.0 | 0.00 | 0.00 | 0.00 | 78 | 1012.0 |
| 20260905142944 | 87 | 146 | 4.0 | 12.0 | 0.00 | 0.00 | 0.00 | 79 | 1012.0 |
| 20260905142445 | 87 | 173 | 3.0 | 12.0 | 0.00 | 0.00 | 0.00 | 78 | 1012.0 |
| 20260905141444 | 87 | 143 | 3.0 | 7.0 | 0.00 | 0.00 | 0.00 | 80 | 1011.9 |
| 20260905140941 | 87 | 177 | 3.0 | 7.0 | 0.00 | 0.00 | 0.00 | 81 | 1011.9 |
| 20260905140441 | 87 | 169 | 2.0 | 6.0 | 0.00 | 0.00 | 0.00 | 81 | 1011.7 |
| 20260905135935 | 87 | 95 | 2.0 | 6.0 | 0.00 | 0.00 | 0.00 | 81 | 1011.7 |
| 20260905135436 | 86 | 103 | 2.0 | 6.0 | 0.00 | 0.00 | 0.00 | 81 | 1011.6 |
| 20260905134932 | 86 | 111 | 2.0 | 4.0 | 0.00 | 0.00 | 0.00 | 81 | 1011.6 |
| 20260905134436 | 86 | 143 | 2.0 | 4.0 | 0.00 | 0.00 | 0.00 | 82 | 1011.6 |
| 20260905133933 | 85 | 152 | 2.0 | 4.0 | 0.00 | 0.00 | 0.00 | 83 | 1011.6 |
| 20260905133437 | 85 | 125 | 2.0 | 4.0 | 0.00 | 0.00 | 0.00 | 84 | 1011.5 |
| 20260905132933 | 84 | 135 | 2.0 | 4.0 | 0.00 | 0.00 | 0.00 | 86 | 1011.4 |
| 20260905132436 | 83 | 156 | 2.0 | 4.0 | 0.00 | 0.00 | 0.00 | 87 | 1011.4 |
| 20260905131437 | 82 | 97 | 3.0 | 4.0 | 0.00 | 0.00 | 0.00 | 89 | 1011.2 |
| 20260905130933 | 82 | 103 | 2.0 | 4.0 | 0.00 | 0.00 | 0.00 | 89 | 1011.1 |
| 20260905125932 | 82 | 163 | 2.0 | 3.0 | 0.00 | 0.00 | 0.00 | 89 | 1011.0 |
| 20260905125422 | 82 | 101 | 2.0 | 3.0 | 0.00 | 0.00 | 0.00 | 89 | 1011.0 |
| 20260905124918 | 82 | 136 | 2.0 | 3.0 | 0.00 | 0.00 | 0.00 | 89 | 1010.9 |
| 20260905123903 | 82 | 171 | 2.0 | 3.0 | 0.00 | 0.00 | 0.00 | 89 | 1010.7 |
| 20260905122903 | 82 | 137 | 2.0 | 4.0 | 0.00 | 0.00 | 0.00 | 90 | 1010.7 |
| 20260905122408 | 82 | 154 | 2.0 | 4.0 | 0.00 | 0.00 | 0.00 | 90 | 1010.6 |
| 20260905121903 | 82 | 159 | 2.0 | 4.0 | 0.00 | 0.00 | 0.00 | 90 | 1010.5 |
| 20260905121408 | 82 | 153 | 2.0 | 4.0 | 0.00 | 0.00 | 0.00 | 90 | 1010.5 |
| 20260905120904 | 82 | 161 | 2.0 | 3.0 | 0.00 | 0.00 | 0.00 | 90 | 1010.5 |
| 20260905115903 | 82 | 168 | 2.0 | 3.0 | 0.00 | 0.00 | 0.00 | 89 | 1010.4 |
| 20260905115406 | 82 | 300 | 2.0 | 3.0 | 0.00 | 0.00 | 0.00 | 89 | 1010.3 |
| 20260905114902 | 82 | 171 | 3.0 | 4.0 | 0.00 | 0.00 | 0.00 | 89 | 1010.2 |
| 20260905114406 | 82 | 166 | 3.0 | 4.0 | 0.00 | 0.00 | 0.00 | 89 | 1010.2 |
| 20260905113902 | 82 | 155 | 3.0 | 4.0 | 0.00 | 0.00 | 0.00 | 89 | 1010.2 |
| 20260905112849 | 82 | 135 | 3.0 | 4.0 | 0.00 | 0.00 | 0.00 | 89 | 1010.1 |
| 20260905111850 | 82 | 156 | 3.0 | 4.0 | 0.00 | 0.00 | 0.00 | 89 | 1010.1 |
| 20260905110850 | 82 | 165 | 3.0 | 4.0 | 0.00 | 0.00 | 0.00 | 90 | 1010.2 |
| 20260905110349 | 82 | 137 | 3.0 | 4.0 | 0.00 | 0.00 | 0.00 | 90 | 1010.2 |
| 20260905105849 | 82 | 152 | 3.0 | 4.0 | 0.00 | 0.00 | 0.00 | 90 | 1010.2 |
| 20260905104850 | 82 | 155 | 2.0 | 4.0 | 0.00 | 0.00 | 0.00 | 90 | 1010.4 |
| 20260905104350 | 82 | 112 | 3.0 | 4.0 | 0.00 | 0.00 | 0.00 | 90 | 1010.3 |
| 20260905103850 | 82 | 133 | 3.0 | 4.0 | 0.00 | 0.00 | 0.00 | 90 | 1010.4 |
| 20260905103340 | 82 | 149 | 3.0 | 4.0 | 0.00 | 0.00 | 0.00 | 90 | 1010.3 |
| 20260905102824 | 82 | 143 | 3.0 | 4.0 | 0.00 | 0.00 | 0.00 | 90 | 1010.4 |
| 20260905102322 | 81 | 117 | 2.0 | 4.0 | 0.00 | 0.00 | 0.00 | 90 | 1010.3 |
| 20260905101821 | 81 | 134 | 2.0 | 3.0 | 0.00 | 0.00 | 0.00 | 90 | 1010.3 |
| 20260905101322 | 81 | 154 | 2.0 | 3.0 | 0.00 | 0.00 | 0.00 | 90 | 1010.2 |
| 20260905100822 | 82 | 153 | 2.0 | 4.0 | 0.00 | 0.00 | 0.00 | 90 | 1010.2 |
| 20260905100322 | 82 | 159 | 2.0 | 4.0 | 0.00 | 0.00 | 0.00 | 90 | 1010.2 |
| 20260905095822 | 82 | 164 | 2.0 | 3.0 | 0.00 | 0.00 | 0.00 | 90 | 1010.2 |
| 20260905094822 | 82 | 191 | 2.0 | 4.0 | 0.00 | 0.00 | 0.00 | 90 | 1010.2 |
| 20260905094323 | 82 | 175 | 3.0 | 4.0 | 0.00 | 0.00 | 0.00 | 90 | 1010.2 |
| 20260905093822 | 82 | 154 | 3.0 | 3.0 | 0.00 | 0.00 | 0.00 | 90 | 1010.2 |
| 20260905093323 | 82 | 146 | 3.0 | 4.0 | 0.00 | 0.00 | 0.00 | 90 | 1010.3 |
| 20260905092822 | 82 | 169 | 2.0 | 4.0 | 0.00 | 0.00 | 0.00 | 90 | 1010.4 |
| 20260905092323 | 82 | 109 | 2.0 | 3.0 | 0.00 | 0.00 | 0.00 | 90 | 1010.5 |
| 20260905091810 | 82 | 149 | 2.0 | 3.0 | 0.00 | 0.00 | 0.00 | 90 | 1010.5 |
| 20260905091308 | 82 | 142 | 2.0 | 3.0 | 0.00 | 0.00 | 0.00 | 90 | 1010.5 |
| 20260905090808 | 82 | 143 | 2.0 | 3.0 | 0.00 | 0.00 | 0.00 | 90 | 1010.5 |
| 20260905090308 | 82 | 161 | 2.0 | 3.0 | 0.00 | 0.00 | 0.00 | 90 | 1010.5 |
| 20260905085808 | 82 | 186 | 2.0 | 3.0 | 0.00 | 0.00 | 0.00 | 90 | 1010.5 |
| 20260905085308 | 82 | 181 | 2.0 | 2.0 | 0.00 | 0.00 | 0.00 | 89 | 1010.4 |
| 20260905084808 | 82 | 168 | 2.0 | 2.0 | 0.00 | 0.00 | 0.00 | 89 | 1010.5 |
| 20260905083808 | 82 | 170 | 2.0 | 2.0 | 0.00 | 0.00 | 0.00 | 89 | 1010.5 |
| 20260905083309 | 82 | 196 | 2.0 | 2.0 | 0.00 | 0.00 | 0.00 | 89 | 1010.4 |
| 20260905082809 | 82 | 160 | 2.0 | 2.0 | 0.00 | 0.00 | 0.00 | 89 | 1010.5 |
| 20260905082307 | 82 | 159 | 2.0 | 2.0 | 0.00 | 0.00 | 0.00 | 89 | 1010.4 |
| 20260905081807 | 82 | 162 | 2.0 | 2.0 | 0.00 | 0.00 | 0.00 | 88 | 1010.5 |
| 20260905081307 | 82 | 167 | 2.0 | 2.0 | 0.00 | 0.00 | 0.00 | 89 | 1010.6 |
| 20260905080806 | 82 | 159 | 2.0 | 2.0 | 0.00 | 0.00 | 0.00 | 89 | 1010.6 |
| 20260905080307 | 82 | 198 | 2.0 | 2.0 | 0.00 | 0.00 | 0.00 | 89 | 1010.6 |
| 20260905075753 | 82 | 174 | 2.0 | 3.0 | 0.00 | 0.00 | 0.00 | 89 | 1010.6 |
| 20260905075253 | 82 | 158 | 2.0 | 3.0 | 0.00 | 0.00 | 0.00 | 89 | 1010.6 |
| 20260905074754 | 83 | 166 | 2.0 | 4.0 | 0.00 | 0.00 | 0.00 | 89 | 1010.6 |
| 20260905074254 | 83 | 169 | 2.0 | 4.0 | 0.00 | 0.00 | 0.00 | 89 | 1010.7 |
| 20260905072754 | 83 | 208 | 2.0 | 3.0 | 0.00 | 0.00 | 0.00 | 89 | 1010.8 |
| 20260905072255 | 83 | 148 | 2.0 | 3.0 | 0.00 | 0.00 | 0.00 | 89 | 1010.9 |
| 20260905071755 | 83 | 165 | 2.0 | 3.0 | 0.00 | 0.00 | 0.00 | 89 | 1011.0 |
| 20260905071255 | 83 | 164 | 2.0 | 3.0 | 0.00 | 0.00 | 0.00 | 89 | 1010.9 |
| 20260905070754 | 83 | 133 | 2.0 | 3.0 | 0.00 | 0.00 | 0.00 | 88 | 1011.0 |
| 20260905070254 | 83 | 171 | 2.0 | 4.0 | 0.00 | 0.00 | 0.00 | 88 | 1011.0 |
| 20260905065754 | 83 | 175 | 2.0 | 4.0 | 0.00 | 0.00 | 0.00 | 88 | 1011.0 |
| 20260905065240 | 83 | 146 | 2.0 | 3.0 | 0.00 | 0.00 | 0.00 | 88 | 1011.0 |
| 20260905064726 | 83 | 157 | 2.0 | 3.0 | 0.00 | 0.00 | 0.00 | 88 | 1011.0 |
| 20260905064227 | 83 | 126 | 2.0 | 3.0 | 0.00 | 0.00 | 0.00 | 88 | 1011.0 |
| 20260905063727 | 83 | 168 | 2.0 | 3.0 | 0.00 | 0.00 | 0.00 | 88 | 1011.0 |
| 20260905063226 | 83 | 173 | 2.0 | 3.0 | 0.00 | 0.00 | 0.00 | 88 | 1011.1 |
| 20260905062225 | 83 | 172 | 2.0 | 3.0 | 0.00 | 0.00 | 0.00 | 87 | 1011.1 |
| 20260905061727 | 83 | 183 | 2.0 | 3.0 | 0.00 | 0.00 | 0.00 | 87 | 1011.0 |
| 20260905061225 | 83 | 149 | 2.0 | 3.0 | 0.00 | 0.00 | 0.00 | 87 | 1011.1 |
| 20260905060728 | 84 | 151 | 2.0 | 3.0 | 0.00 | 0.00 | 0.00 | 87 | 1011.1 |
| 20260905060225 | 84 | 141 | 2.0 | 3.0 | 0.00 | 0.00 | 0.00 | 87 | 1011.1 |
| 20260905054229 | 84 | 167 | 2.0 | 4.0 | 0.00 | 0.00 | 0.00 | 86 | 1011.0 |
| 20260905053712 | 84 | 132 | 2.0 | 4.0 | 0.00 | 0.00 | 0.00 | 86 | 1011.1 |
| 20260905053215 | 84 | 115 | 2.0 | 4.0 | 0.00 | 0.00 | 0.00 | 86 | 1011.2 |
| 20260905052216 | 84 | 121 | 2.0 | 3.0 | 0.00 | 0.00 | 0.00 | 86 | 1011.3 |
| 20260905051215 | 84 | 107 | 2.0 | 3.0 | 0.00 | 0.00 | 0.00 | 85 | 1011.3 |
| 20260905050713 | 84 | 135 | 2.0 | 3.0 | 0.00 | 0.00 | 0.00 | 85 | 1011.3 |
| 20260905050215 | 84 | 131 | 2.0 | 3.0 | 0.00 | 0.00 | 0.00 | 85 | 1011.2 |
| 20260905045713 | 85 | 134 | 2.0 | 4.0 | 0.00 | 0.00 | 0.00 | 85 | 1011.3 |
| 20260905044711 | 85 | 146 | 2.0 | 4.0 | 0.00 | 0.00 | 0.00 | 84 | 1011.3 |
| 20260905044210 | 85 | 168 | 2.0 | 6.0 | 0.00 | 0.00 | 0.00 | 84 | 1011.3 |
| 20260905043711 | 85 | 132 | 2.0 | 6.0 | 0.00 | 0.00 | 0.00 | 84 | 1011.3 |
| 20260905043215 | 85 | 155 | 2.0 | 4.0 | 0.00 | 0.00 | 0.00 | 84 | 1011.3 |
| 20260905042711 | 85 | 160 | 2.0 | 4.0 | 0.00 | 0.00 | 0.00 | 84 | 1011.4 |
| 20260905042210 | 85 | 153 | 2.0 | 6.0 | 0.00 | 0.00 | 0.00 | 83 | 1011.5 |
| 20260905041210 | 85 | 130 | 2.0 | 4.0 | 0.00 | 0.00 | 0.00 | 83 | 1011.5 |
| 20260905040210 | 85 | 172 | 2.0 | 4.0 | 0.00 | 0.00 | 0.00 | 83 | 1011.4 |
| 20260905035712 | 85 | 169 | 2.0 | 4.0 | 0.00 | 0.00 | 0.00 | 83 | 1011.4 |
| 20260905035210 | 85 | 108 | 2.0 | 4.0 | 0.00 | 0.00 | 0.00 | 83 | 1011.5 |
| 20260905034712 | 85 | 141 | 2.0 | 4.0 | 0.00 | 0.00 | 0.00 | 82 | 1011.6 |
| 20260905033702 | 85 | 127 | 2.0 | 5.0 | 0.00 | 0.00 | 0.00 | 82 | 1011.5 |
| 20260905033157 | 85 | 140 | 2.0 | 4.0 | 0.00 | 0.00 | 0.00 | 82 | 1011.4 |
| 20260905032659 | 85 | 143 | 2.0 | 4.0 | 0.00 | 0.00 | 0.00 | 82 | 1011.4 |
| 20260905032157 | 86 | 154 | 2.0 | 4.0 | 0.00 | 0.00 | 0.00 | 81 | 1011.4 |
| 20260905031659 | 86 | 112 | 2.0 | 7.0 | 0.00 | 0.00 | 0.00 | 81 | 1011.5 |
| 20260905031155 | 86 | 122 | 2.0 | 7.0 | 0.00 | 0.00 | 0.00 | 81 | 1011.5 |
| 20260905030657 | 86 | 161 | 2.0 | 6.0 | 0.00 | 0.00 | 0.00 | 81 | 1011.4 |
| 20260905030155 | 86 | 159 | 2.0 | 6.0 | 0.00 | 0.00 | 0.00 | 81 | 1011.4 |
| 20260905025657 | 86 | 128 | 2.0 | 6.0 | 0.00 | 0.00 | 0.00 | 80 | 1011.3 |
| 20260905024657 | 86 | 108 | 2.0 | 6.0 | 0.00 | 0.00 | 0.00 | 79 | 1011.0 |
| 20260905024155 | 86 | 56 | 2.0 | 6.0 | 0.00 | 0.00 | 0.00 | 79 | 1011.0 |
| 20260905023657 | 86 | 156 | 2.0 | 6.0 | 0.00 | 0.00 | 0.00 | 79 | 1011.0 |
| 20260905023156 | 86 | 127 | 2.0 | 5.0 | 0.00 | 0.00 | 0.00 | 79 | 1011.0 |
| 20260905022657 | 86 | 135 | 3.0 | 5.0 | 0.00 | 0.00 | 0.00 | 78 | 1011.0 |
| 20260905021654 | 86 | 125 | 2.0 | 7.0 | 0.00 | 0.00 | 0.00 | 78 | 1010.7 |
| 20260905020655 | 87 | 150 | 3.0 | 8.0 | 0.00 | 0.00 | 0.00 | 77 | 1010.4 |
| 20260905020153 | 87 | 114 | 3.0 | 7.0 | 0.00 | 0.00 | 0.00 | 76 | 1010.5 |
| 20260905015655 | 87 | 111 | 3.0 | 9.0 | 0.00 | 0.00 | 0.00 | 76 | 1010.3 |
| 20260905015153 | 87 | 137 | 3.0 | 11.0 | 0.00 | 0.00 | 0.00 | 76 | 1010.3 |
| 20260905014654 | 87 | 117 | 3.0 | 11.0 | 0.00 | 0.00 | 0.00 | 76 | 1010.2 |
| 20260905014153 | 87 | 138 | 3.0 | 6.0 | 0.00 | 0.00 | 0.00 | 75 | 1010.2 |
| 20260905013153 | 87 | 110 | 3.0 | 10.0 | 0.00 | 0.00 | 0.00 | 75 | 1010.0 |
| 20260905012655 | 87 | 147 | 3.0 | 8.0 | 0.00 | 0.00 | 0.00 | 76 | 1010.0 |
| 20260905012153 | 87 | 156 | 4.0 | 9.0 | 0.00 | 0.00 | 0.00 | 76 | 1010.0 |
| 20260905011150 | 87 | 166 | 4.0 | 11.0 | 0.00 | 0.00 | 0.00 | 76 | 1010.0 |
| 20260905010657 | 87 | 118 | 4.0 | 9.0 | 0.00 | 0.00 | 0.00 | 75 | 1009.9 |
| 20260905010152 | 88 | 144 | 4.0 | 11.0 | 0.00 | 0.00 | 0.00 | 74 | 1009.9 |
| 20260905005655 | 88 | 125 | 4.0 | 11.0 | 0.00 | 0.00 | 0.00 | 74 | 1010.0 |
| 20260905005150 | 88 | 122 | 4.0 | 10.0 | 0.00 | 0.00 | 0.00 | 72 | 1010.0 |
| 20260905004652 | 88 | 180 | 6.0 | 6.0 | 0.00 | 0.00 | 0.00 | 72 | 1009.9 |
| 20260905003938 | 88 | 112 | 4.0 | 9.0 | 0.00 | 0.00 | 0.00 | 72 | 1009.9 |
| 20260905003437 | 88 | 124 | 4.0 | 11.0 | 0.00 | 0.00 | 0.00 | 71 | 1009.7 |
| 20260905002438 | 89 | 113 | 5.0 | 12.0 | 0.00 | 0.00 | 0.00 | 70 | 1009.7 |
| 20260905001938 | 89 | 64 | 5.0 | 12.0 | 0.00 | 0.00 | 0.00 | 70 | 1009.6 |
| 20260905000935 | 89 | 188 | 4.0 | 10.0 | 0.00 | 0.00 | 0.00 | 69 | 1009.6 |
| 20260905000435 | 89 | 122 | 5.0 | 11.0 | 0.00 | 0.00 | 0.00 | 68 | 1009.5 |
| 20260904235933 | 90 | 121 | 5.0 | 11.0 | 0.00 | 0.00 | 0.00 | 67 | 1009.4 |
| 20260904235429 | 90 | 121 | 4.0 | 10.0 | 0.00 | 0.00 | 0.00 | 67 | 1009.3 |
| 20260904234929 | 91 | 131 | 4.0 | 9.0 | 0.00 | 0.00 | 0.00 | 66 | 1009.4 |
| 20260904234427 | 91 | 117 | 4.0 | 9.0 | 0.00 | 0.00 | 0.00 | 65 | 1009.4 |
| 20260904233926 | 91 | 99 | 5.0 | 11.0 | 0.00 | 0.00 | 0.00 | 65 | 1009.3 |
| 20260904233427 | 91 | 158 | 5.0 | 11.0 | 0.00 | 0.00 | 0.00 | 65 | 1009.3 |
| 20260904232926 | 91 | 116 | 5.0 | 10.0 | 0.00 | 0.00 | 0.00 | 64 | 1009.3 |
| 20260904232426 | 91 | 167 | 5.0 | 13.0 | 0.00 | 0.00 | 0.00 | 63 | 1009.3 |
| 20260904231926 | 91 | 111 | 6.0 | 13.0 | 0.00 | 0.00 | 0.00 | 65 | 1009.2 |
| 20260904230927 | 92 | 130 | 5.0 | 14.0 | 0.00 | 0.00 | 0.00 | 63 | 1009.2 |
| 20260904230427 | 92 | 80 | 5.0 | 14.0 | 0.00 | 0.00 | 0.00 | 63 | 1009.2 |
| 20260904225927 | 92 | 136 | 5.0 | 13.0 | 0.00 | 0.00 | 0.00 | 64 | 1009.1 |
| 20260904225426 | 92 | 148 | 5.0 | 11.0 | 0.00 | 0.00 | 0.00 | 64 | 1009.1 |
| 20260904224927 | 92 | 96 | 4.0 | 10.0 | 0.00 | 0.00 | 0.00 | 63 | 1009.2 |
| 20260904224427 | 92 | 157 | 5.0 | 12.0 | 0.00 | 0.00 | 0.00 | 62 | 1009.2 |
| 20260904223927 | 93 | 131 | 5.0 | 13.0 | 0.00 | 0.00 | 0.00 | 63 | 1009.1 |
| 20260904223427 | 93 | 120 | 5.0 | 13.0 | 0.00 | 0.00 | 0.00 | 61 | 1009.0 |
| 20260904222925 | 94 | 144 | 5.0 | 9.0 | 0.00 | 0.00 | 0.00 | 60 | 1009.0 |
| 20260904222424 | 94 | 110 | 5.0 | 11.0 | 0.00 | 0.00 | 0.00 | 60 | 1008.9 |
| 20260904221925 | 94 | 188 | 5.0 | 11.0 | 0.00 | 0.00 | 0.00 | 59 | 1008.9 |
| 20260904221425 | 94 | 150 | 5.0 | 11.0 | 0.00 | 0.00 | 0.00 | 59 | 1008.9 |
| 20260904220924 | 94 | 107 | 4.0 | 11.0 | 0.00 | 0.00 | 0.00 | 57 | 1008.9 |
| 20260904220425 | 94 | 124 | 5.0 | 11.0 | 0.00 | 0.00 | 0.00 | 58 | 1009.0 |
| 20260904215925 | 94 | 127 | 5.0 | 11.0 | 0.00 | 0.00 | 0.00 | 58 | 1008.9 |
| 20260904215425 | 95 | 121 | 4.0 | 12.0 | 0.00 | 0.00 | 0.00 | 58 | 1008.8 |
| 20260904214925 | 95 | 114 | 4.0 | 12.0 | 0.00 | 0.00 | 0.00 | 55 | 1008.9 |
| 20260904214425 | 95 | 96 | 5.0 | 9.0 | 0.00 | 0.00 | 0.00 | 56 | 1008.9 |
| 20260904213925 | 95 | 312 | 4.0 | 9.0 | 0.00 | 0.00 | 0.00 | 57 | 1008.9 |
| 20260904213426 | 95 | 131 | 4.0 | 10.0 | 0.00 | 0.00 | 0.00 | 57 | 1009.0 |
| 20260904212922 | 95 | 80 | 4.0 | 10.0 | 0.00 | 0.00 | 0.00 | 55 | 1008.9 |
| 20260904212422 | 95 | 102 | 4.0 | 11.0 | 0.00 | 0.00 | 0.00 | 56 | 1009.0 |
| 20260904211921 | 95 | 132 | 4.0 | 11.0 | 0.00 | 0.00 | 0.00 | 55 | 1009.0 |
| 20260904211421 | 96 | 149 | 4.0 | 12.0 | 0.00 | 0.00 | 0.00 | 55 | 1009.1 |
| 20260904210920 | 96 | 152 | 4.0 | 12.0 | 0.00 | 0.00 | 0.00 | 54 | 1009.2 |
| 20260904210421 | 96 | 190 | 5.0 | 11.0 | 0.00 | 0.00 | 0.00 | 53 | 1009.2 |